Погода в Тумате

Россия / Республика Саха (Якутия)     70°43′20″N   139°13′33″E
темп.,
°C
ветер,
м/с
пор.,
м/с
влажн.,
%
обл.,
%
осадки,
мм/ч
давл.,
гПа
погр.,
м
28 сентября, вт
вт2801:00−3зсз4892100 0.1 1019166
04:00−3зсз359399 0.3 101981
07:00−6зсз3393100 0.0 101933
10:00−3зсз3591100 0.0 1019151
13:00−1ссз4683100 0.2 1019685
16:00−2ссз358799 0.4 1019108
19:00−7ссз229398 0.1 102013
22:00−9з119366 0.1 102110
29 сентября, ср
ср2901:00−10зюз229585 0.0 102115
04:00−9юз229697 0.0 102215
07:00−9юз339664 0.0 102226
10:00−7юз229656 0.0 102349
13:00−5ююз129310 0.0 102387
16:00−7юв22965 0.0 102310
19:00−11вюв339757 0.0 102416
22:00−10вюв459514 0.0 102357
30 сентября, чт
чт3001:00−11вюв47925 0.0 102273
04:00−12юв45906 0.0 102261
07:00−12вюв35899 0.0 102152
10:00−9юв36885 0.0 1020109
13:00−6юв46875 0.0 1019176
16:00−5вюв478932 0.0 1018144
19:00−8вюв588746 0.0 1017105
22:00−10юв47855 0.0 101695
1 октября, пт
пт101:00−10юв46865 0.0 101475
04:00−11вюв478729 0.0 101286
07:00−10юв488726 0.0 1011105
10:00−8вюв588762 0.0 1010166
13:00−5юв468713 0.0 1008188
16:00−6юв358921 0.0 100777
19:00−11юв33925 0.0 100730
22:00−14ю22935 0.0 100611
2 октября, сб
сб201:00−15ююз22925 0.0 100613
04:00−16юз32925 0.0 100625
07:00−15зюз33915 0.0 100636
10:00−11зюз36916 0.0 1007105
13:00−8зюз35935 0.0 1007144
16:00−6з469539 0.0 100795
19:00−2зсз479698 0.1 1009170
22:00−2зсз5994100 0.1 1010192